FW8456 Weather Reports


Display with metric or nautical units.
time (UTC)temp
F
wind
direction
speed
MPH
gust
MPH
rain 1hr
in
rain 24hr
in
rain mn
in
humidity
%
barometer
mb
20260505041639 49 338 0.0 0.0 0.00 0.00 0.00 85 1010.6
20260505041130 49 0 0.0 0.0 0.00 0.00 0.00 87 1010.6
20260505040619 49 338 0.0 0.0 0.00 0.00 0.00 87 1010.9
20260505040109 48 0 0.0 0.0 0.00 0.00 0.00 87 1010.7
20260505035559 48 338 0.0 0.0 0.00 0.00 0.00 87 1010.9
20260505035049 49 23 0.0 0.0 0.00 0.00 0.00 86 1010.9
20260505034538 49 0 0.0 0.0 0.00 0.00 0.00 87 1010.9
20260505034029 48 338 0.0 0.0 0.00 0.00 0.00 88 1010.9
20260505033518 48 23 0.0 0.0 0.00 0.00 0.00 86 1011.1
20260505032458 50 338 0.0 0.0 0.00 0.00 0.00 85 1010.9
20260505031948 49 315 0.0 0.0 0.00 0.00 0.00 86 1011.0
20260505031438 49 315 0.0 0.0 0.00 0.00 0.00 86 1010.9
20260505030928 49 0 0.0 0.0 0.00 0.00 0.00 86 1011.1
20260505025358 47 0 0.0 0.0 0.00 0.00 0.00 87 1010.8
20260505024337 46 0 0.0 0.0 0.00 0.00 0.00 86 1010.9
20260505023827 48 23 0.0 0.0 0.00 0.00 0.00 85 1010.8
20260505022807 50 23 0.0 0.0 0.00 0.00 0.00 83 1010.8
20260505021746 50 0 0.0 0.0 0.00 0.00 0.00 83 1010.9
20260505021237 51 23 0.0 0.0 0.00 0.00 0.00 83 1011.0
20260505020726 51 315 0.0 0.0 0.00 0.00 0.00 83 1011.1
20260505020217 51 0 0.0 0.0 0.00 0.00 0.00 81 1010.8
20260505015706 52 338 0.0 0.0 0.00 0.00 0.00 81 1010.9
20260505014136 51 0 0.0 0.0 0.00 0.00 0.00 83 1010.3
20260505013626 51 338 0.0 0.0 0.00 0.00 0.00 83 1010.5
20260505013116 51 293 0.0 0.0 0.00 0.00 0.00 82 1010.3
20260505012606 51 338 0.0 0.0 0.00 0.00 0.00 81 1010.4
20260505012055 52 315 0.0 0.0 0.00 0.00 0.00 82 1010.4
20260505011548 51 315 0.0 0.0 0.00 0.00 0.00 83 1010.3
20260505011035 51 315 0.0 0.0 0.00 0.00 0.00 82 1010.1
20260505010526 52 293 0.0 0.0 0.00 0.00 0.00 82 1009.9
20260505010015 52 338 0.0 0.0 0.00 0.00 0.00 83 1009.9
20260505005506 51 0 0.0 0.0 0.00 0.00 0.00 82 1009.9
20260505004955 53 0 0.0 0.0 0.00 0.00 0.00 79 1009.8
20260505004444 54 315 0.0 0.0 0.00 0.00 0.00 79 1009.7
20260505003935 54 293 0.0 0.0 0.00 0.00 0.00 79 1009.8
20260505003425 55 315 0.0 0.0 0.00 0.00 0.00 78 1009.6
20260505002914 53 338 0.0 0.0 0.00 0.00 0.00 77 1009.5
20260505001854 56 315 0.0 0.0 0.00 0.00 0.00 75 1009.4
20260505001344 56 315 0.0 0.0 0.00 0.00 0.00 76 1009.4
20260505000834 55 338 0.0 0.0 0.00 0.00 0.00 77 1009.2
20260505000324 55 23 0.0 0.0 0.00 0.00 0.00 77 1008.7
20260504234751 55 0 0.0 0.0 0.00 0.00 0.00 77 1008.9
20260504233730 56 0 0.0 0.0 0.00 0.00 0.00 74 1009.0
20260504232710 57 23 0.0 0.0 0.00 0.00 0.00 74 1008.8
20260504231650 56 0 0.0 0.0 0.00 0.00 0.00 73 1008.7
20260504231139 57 0 0.0 0.0 0.00 0.00 0.00 72 1008.8
20260504230630 58 0 0.0 0.0 0.00 0.00 0.00 71 1008.7
20260504230120 56 23 0.0 0.0 0.00 0.00 0.00 74 1008.8
20260504225609 56 23 0.0 0.0 0.00 0.00 0.00 74 1008.8
20260504225059 56 23 0.0 0.0 0.00 0.00 0.00 73 1008.7
20260504224549 56 23 0.0 0.0 0.00 0.00 0.00 73 1008.4
20260504224038 56 0 0.0 0.0 0.00 0.00 0.00 73 1008.7
20260504223018 56 23 0.0 0.0 0.00 0.00 0.00 73 1008.6
20260504222508 56 23 0.0 0.0 0.00 0.00 0.00 71 1008.6
20260504221959 58 23 0.0 0.0 0.00 0.00 0.00 69 1008.4
20260504220428 58 23 0.0 0.0 0.00 0.00 0.00 68 1008.4
20260504215918 59 0 0.0 0.0 0.00 0.00 0.00 67 1008.3
20260504215409 59 0 0.0 0.0 0.00 0.00 0.00 66 1008.2
20260504214348 61 45 0.0 0.0 0.00 0.00 0.00 63 1008.0
20260504213837 62 45 0.0 0.0 0.00 0.00 0.00 62 1008.1
20260504213331 63 68 0.0 0.0 0.00 0.00 0.00 61 1008.2
20260504212817 63 45 0.0 0.0 0.00 0.00 0.00 60 1008.1
20260504212308 64 68 0.0 0.0 0.00 0.00 0.00 58 1007.9
20260504211757 65 45 0.0 0.0 0.00 0.00 0.00 57 1008.0
20260504211247 66 45 0.0 0.0 0.00 0.00 0.00 56 1008.2
20260504210736 67 68 0.0 2.0 0.00 0.00 0.00 55 1008.2
20260504205717 68 45 0.0 6.0 0.00 0.00 0.00 52 1007.9
20260504205207 69 68 3.0 6.0 0.00 0.00 0.00 51 1008.0
20260504204657 71 68 0.0 0.0 0.00 0.00 0.00 48 1007.9
20260504204146 71 90 0.0 0.0 0.00 0.00 0.00 47 1008.0
20260504203636 71 90 0.0 0.0 0.00 0.00 0.00 45 1007.9
20260504203126 72 68 0.0 0.0 0.00 0.00 0.00 45 1008.1
20260504202616 72 90 0.0 0.0 0.00 0.00 0.00 44 1008.1
20260504202109 72 90 0.0 0.0 0.00 0.00 0.00 43 1008.3
20260504201558 73 90 0.0 0.0 0.00 0.00 0.00 44 1008.0
20260504201048 73 68 0.0 0.0 0.00 0.00 0.00 44 1008.2
20260504200028 73 113 0.0 0.0 0.00 0.00 0.00 43 1008.0
20260504195519 73 90 0.0 0.0 0.00 0.00 0.00 44 1008.0
20260504195009 72 113 0.0 0.0 0.00 0.00 0.00 44 1008.0
20260504194458 73 90 0.0 0.0 0.00 0.00 0.00 44 1008.0
20260504192928 73 90 0.0 4.0 0.00 0.00 0.00 44 1008.2
20260504192417 73 68 0.0 4.0 0.00 0.00 0.00 43 1008.2
20260504191907 73 68 0.0 4.0 0.00 0.00 0.00 43 1008.3
20260504191358 73 68 0.0 0.0 0.00 0.00 0.00 42 1008.2
20260504190847 73 45 0.0 0.0 0.00 0.00 0.00 42 1008.4
20260504190334 73 113 0.0 0.0 0.00 0.00 0.00 42 1008.6
20260504185824 74 68 0.0 0.0 0.00 0.00 0.00 43 1008.4
20260504184804 73 45 0.0 2.0 0.00 0.00 0.00 42 1008.6
20260504184254 73 23 0.0 4.0 0.00 0.00 0.00 43 1008.7
20260504183233 72 68 0.0 0.0 0.00 0.00 0.00 43 1008.9
20260504182723 72 90 0.0 0.0 0.00 0.00 0.00 43 1009.1
20260504182213 72 135 0.0 0.0 0.00 0.00 0.00 43 1008.8
20260504181703 72 113 0.0 0.0 0.00 0.00 0.00 43 1008.7
20260504181152 72 135 0.0 0.0 0.00 0.00 0.00 43 1009.0
20260504180643 72 135 0.0 4.0 0.00 0.00 0.00 43 1008.9
20260504180133 71 158 0.0 4.0 0.00 0.00 0.00 44 1009.1
20260504175623 72 180 0.0 4.0 0.00 0.00 0.00 45 1009.1
20260504175115 72 113 0.0 0.0 0.00 0.00 0.00 44 1009.3
20260504174603 72 68 0.0 0.0 0.00 0.00 0.00 44 1009.2
20260504174053 71 135 0.0 0.0 0.00 0.00 0.00 46 1009.4
20260504173542 71 90 0.0 0.0 0.00 0.00 0.00 46 1009.6
20260504173033 72 135 0.0 0.0 0.00 0.00 0.00 45 1009.6
20260504172522 73 180 0.0 0.0 0.00 0.00 0.00 44 1009.5
20260504172012 72 90 0.0 0.0 0.00 0.00 0.00 44 1009.8
20260504170951 71 113 0.0 4.0 0.00 0.00 0.00 44 1009.9
20260504170441 70 113 0.0 0.0 0.00 0.00 0.00 45 1009.9
20260504151102 67 68 0.0 0.0 0.00 0.00 0.00 49 1011.7
20260504150553 66 45 0.0 0.0 0.00 0.00 0.00 51 1011.7
20260504140902 65 90 0.0 0.0 0.00 0.00 0.00 53 1012.2
20260504140351 64 90 0.0 0.0 0.00 0.00 0.00 53 1012.1
20260504130656 59 90 0.0 0.0 0.00 0.00 0.00 63 1012.8
20260504130146 58 90 0.0 0.0 0.00 0.00 0.00 65 1012.6
20260504110254 42 338 0.0 0.0 0.00 0.00 0.00 86 1011.3
20260504081730 47 338 0.0 0.0 0.00 0.00 0.00 80 1010.1
20260504081220 45 0 0.0 0.0 0.00 0.00 0.00 81 1010.3
20260504080710 50 338 0.0 0.0 0.00 0.00 0.00 78 1010.4
20260504050254 47 23 0.0 4.0 0.00 0.00 0.00 78 1010.8
20260504045745 47 23 0.0 4.0 0.00 0.00 0.00 77 1010.5
20260504045233 46 23 0.0 2.0 0.00 0.00 0.00 79 1010.6
20260504044725 46 23 0.0 0.0 0.00 0.00 0.00 80 1010.4